Regional Weather Roundup
Issued by NWS Goodland, KS

Home | Current Version | Previous Version | Graphics & Text | Print | Product List | Glossary On
Versions: 1 2 3 4 5 6 7 8 9 10 11 12 13 14 15 16 17 18 19 20 21 22 23 24 25 26 27 28 29 30 31 32 33 34 35 36 37 38 39 40 41 42 43 44 45 46 47 48 49 50
000
ASUS43 KGLD 040259
RWRGLD

GOODLAND FORECAST AREA HOURLY WEATHER ROUNDUP
NATIONAL WEATHER SERVICE GOODLAND KS
900 PM MDT SUN MAY 03 2015

...OFFICIAL OBSERVATIONS...

CITY           SKY/WX    TMP DP  RH WIND       PRES   REMARKS
GOODLAND KS    MOCLDY    66  45  46 NE13      29.90R
HILL CITY KS   CLOUDY    80  48  32 N23G32    29.81R
IMPERIAL NEB   MOCLDY    65  41  41 NE15      29.95R
MCCOOK NEB     MOCLDY    70  48  45 N18       29.87R
AKRON CO       CLOUDY    60  44  55 W9        30.05R
BURLINGTON CO  CLOUDY    68  41  37 NW13G21   29.99R THUNDER
LIMON CO       LGT RAIN  53  44  71 N17       30.03R
$$

...UNOFFICIAL OBSERVATIONS...

CITY           SKY/WX    TMP DP  RH WIND       PRES   REMARKS
COLBY KS       CLEAR     72  48  43 N10       29.89R
GOVE KS          N/A     73  32  22 MISG        N/A
LENORA KS        N/A     74  32  21 MISG        N/A
NORTON KS      CLEAR     73  48  40 N12       29.83R
SHARON SPRINGS   N/A     67  49  52 MISG        N/A
KIT CARSON CO    N/A     63  48  57 MISG        N/A
YUMA CO          N/A     63  44  50 NE12        N/A
$$


USA.gov is the U.S. government's official web portal to all federal, state and local government web resources and services.